OBJECT J

Last updated on Oct. 9, 2018, 8:17 a.m. UTC

1 43188U 18014J   18282.22659430  .00000802  00000-0  75604-4 0  9996
2 43188  97.7165 189.1879 0012408 125.7323 234.5054 14.96512584 37370
UTC
Height (km)
Latitude
Longitude
Inclination
Orbital Period
UTC large
Height (km)
Speed (km/s)
/
Latitude / Longitude
Inclination (degrees)
Orbital Period (minutes)
Azimuth
Elevation
Range (km)
Doppler Factor
iOS Compass Heading
iOS Angle